This is the latest recevied weather packets stored in our database for station/object IW1CGW-13. If no packets are shown the sender has not sent any weather packets the latest 10 day(s).
| Time | Temp. | Humidity | Pressure | Rain* | Wind** | Luminosity | Snow |
|---|---|---|---|---|---|---|---|
| 1777971313 | 12.78° C | 75% | 1012.8 hPa | - | - | - | - |
| 1777970692 | 11.67° C | 77% | 1012.7 hPa | - | - | - | - |
| 1777970071 | 12.22° C | 75% | 1012.7 hPa | - | - | - | - |
| 1777969447 | 11.11° C | 76% | 1012.7 hPa | - | - | - | - |
| 1777968825 | 10.56° C | 77% | 1012.7 hPa | - | - | - | - |
| 1777968204 | 10° C | 78% | 1012.7 hPa | - | - | - | - |
| 1777967584 | 10° C | 78% | 1012.9 hPa | - | - | - | - |
| 1777966963 | 10° C | 78% | 1012.8 hPa | - | - | - | - |
| 1777965721 | 8.89° C | 78% | 1013.1 hPa | - | - | - | - |
| 1777964476 | 8.89° C | 78% | 1013 hPa | - | - | - | - |
| 1777963856 | 8.33° C | 78% | 1012.9 hPa | - | - | - | - |
| 1777963235 | 8.33° C | 78% | 1012.9 hPa | - | - | - | - |
| 1777962615 | 8.33° C | 78% | 1012.8 hPa | - | - | - | - |
| 1777961992 | 8.33° C | 78% | 1012.8 hPa | - | - | - | - |
| 1777961371 | 8.33° C | 78% | 1012.7 hPa | - | - | - | - |
| 1777960126 | 8.33° C | 78% | 1012.7 hPa | - | - | - | - |
| 1777959505 | 8.33° C | 78% | 1012.6 hPa | - | - | - | - |
| 1777958885 | 8.33° C | 78% | 1012.6 hPa | - | - | - | - |
| 1777958264 | 7.78° C | 78% | 1012.5 hPa | - | - | - | - |
| 1777957643 | 7.78° C | 77% | 1012.5 hPa | - | - | - | - |
| 1777957021 | 8.33° C | 77% | 1012.6 hPa | - | - | - | - |
| 1777956400 | 7.78° C | 77% | 1012.6 hPa | - | - | - | - |
| 1777955779 | 7.78° C | 76% | 1012.6 hPa | - | - | - | - |
| 1777955154 | 7.78° C | 77% | 1012.7 hPa | - | - | - | - |
| 1777954533 | 7.78° C | 76% | 1012.7 hPa | - | - | - | - |
* Rain since midnight (hover to see other rain measurements)
** Current wind speed in m/s (hover to see current wind gust speed)